This is the latest recevied weather packets stored in our database for station/object KC3UTO. If no packets are shown the sender has not sent any weather packets the latest 10 day(s).
| Time | Temp. | Humidity | Pressure | Rain* | Wind** | Luminosity | Snow |
|---|---|---|---|---|---|---|---|
| 1777908651 | 18.89° C | 33% | 1012.2 hPa | 0 mm | - | 702 W/m² | - |
| 1777908347 | 18.89° C | 32% | 1012.3 hPa | 0 mm | - | 580 W/m² | - |
| 1777908043 | 18.89° C | 30% | 1012.3 hPa | 0 mm | - | 863 W/m² | - |
| 1777907739 | 18.89° C | 32% | 1012.2 hPa | 0 mm | - | 839 W/m² | - |
| 1777907439 | 18.89° C | 31% | 1012.3 hPa | 0 mm | - | 829 W/m² | - |
| 1777907136 | 18.89° C | 31% | 1012.6 hPa | 0 mm | - | 433 W/m² | - |
| 1777906834 | 18.89° C | 31% | 1012.3 hPa | 0 mm | - | 802 W/m² | - |
| 1777906531 | 18.33° C | 34% | 1012.3 hPa | 0 mm | - | 794 W/m² | - |
| 1777906226 | 18.33° C | 36% | 1012.3 hPa | 0 mm | - | 790 W/m² | - |
| 1777905923 | 17.78° C | 35% | 1012.5 hPa | 0 mm | - | 766 W/m² | - |
| 1777905620 | 17.78° C | 34% | 1012.6 hPa | 0 mm | - | 763 W/m² | - |
| 1777905317 | 17.78° C | 35% | 1012.6 hPa | 0 mm | - | 738 W/m² | - |
| 1777905015 | 17.78° C | 36% | 1012.7 hPa | 0 mm | - | 754 W/m² | - |
| 1777904712 | 17.22° C | 39% | 1012.6 hPa | 0 mm | - | 736 W/m² | - |
| 1777904408 | 17.78° C | 39% | 1012.6 hPa | 0 mm | - | 722 W/m² | - |
| 1777904105 | 17.22° C | 39% | 1012.7 hPa | 0 mm | - | 714 W/m² | - |
| 1777903802 | 17.78° C | 42% | 1012.5 hPa | 0 mm | - | 424 W/m² | - |
| 1777903499 | 17.22° C | 41% | 1012.6 hPa | 0 mm | - | 541 W/m² | - |
| 1777903195 | 17.22° C | 43% | 1012.6 hPa | 0 mm | - | 669 W/m² | - |
| 1777902891 | 16.11° C | 43% | 1012.6 hPa | 0 mm | - | 655 W/m² | - |
| 1777902588 | 16.67° C | 44% | 1012.7 hPa | 0 mm | - | 471 W/m² | - |
| 1777902286 | 16.11° C | 44% | 1012.7 hPa | 0 mm | - | 710 W/m² | - |
| 1777901983 | 16.11° C | 45% | 1013 hPa | 0 mm | - | 619 W/m² | - |
| 1777901681 | 16.67° C | 43% | 1013 hPa | 0 mm | - | 588 W/m² | - |
| 1777901378 | 15.56° C | 47% | 1012.8 hPa | 0 mm | - | 560 W/m² | - |
* Rain latest hour (hover to see other rain measurements)
** Current wind speed in m/s (hover to see current wind gust speed)